Location: Asheville, NC
(35.6000°N, 82.5500°W)
Time: 10:01:40

Vanguard 2 Rocket - Pass Details

Date: 15 December 2017
Orbit: 554 x 3327 km, 32.9° (Epoch: 22 March)

Event Time Altitude Azimuth Distance (km) Brightness Sun altitude
Rises 19:51:17 0° 250° (WSW) 4,766 11.7 -30.2°
Reaches altitude 10° 19:53:53 10° 249° (WSW) 4,075 11.1 -30.7°
Maximum altitude 20:05:44 75° 166° (SSE) 2,608 8.9 -33.1°
Enters shadow 20:11:02 53° 98° (E) 3,278 9.2 -34.2°
Drops below altitude 10° 20:24:57 10° 86° (E) 6,224 - -37.0°
Sets 20:30:02 0° 85° (E) 7,315 - -38.0°
